Find Starlink 33553

NORAD ID: 62108 Int'l Des: 2024-220 Owner: SPXS Country: US Constellation: starlink operational
LEOCIRCULAR

Current View

Loading 3D Globe...

About Starlink 33553

Starlink 33553 (NORAD 62108) is a starlink constellation satellite (v2 mini) launched Nov 25, 2024 by SPXS of US. It operates in LEO, CIRCULAR orbit with a mass of 530.00 kg.

About Starlink 33553

Description loading...

Upcoming Passes

Passes for default location (London). Set your location on the main map for personalized predictions.

Altitude History

Loading altitude history...

Two-Line Element Set

1 62108U 24220W 26173.71519188 .00009423 00000-0 35142-3 0 9992
2 62108 43.0001 332.4013 0001619 266.3277 93.7390 15.27587556 89259
Epoch: Jun 22, 2026 • Age: 13 hours

Current Status

Altitude 486.7 km
Velocity 7.62 km/s
Sub-Earth Point -19.40°S, 160.4°E
Launch Date Nov 25, 2024
Age 1.5 years
Type internet

Technical Details

Classification Payload
Mass 530.00 kg
Dry Mass 500.00 kg
Total Mass 530.00 kg
Length 0.30 m
Diameter 4.10 m
Span 29.00 m
Shape Box + pan
Manufacturer SPXS
Bus Type Starlink V2MO
Phase Status In Orbit
Owner/State SPXS/US

Most Searched